Location: Unspecified
(0.0000°N, 0.0000°E)
Time: 10:21:06
(UTC+00:00)

METEOR M2 - Pass Details

Date: 27 May 2024
Orbit: 818 x 826 km, 98.4° (Epoch: 19 June)

Event Time Altitude Azimuth Distance (km) Brightness Sun altitude
Rises 05:13:26 0° 8° (N) 3,337 ? -10.2°
Reaches altitude 10° 05:15:47 10° 6° (N) 2,408 ? -9.6°
Maximum altitude 05:21:06 72° 282° (WNW) 863 ? -8.4°
Drops below altitude 10° 05:26:27 10° 198° (SSW) 2,423 ? -7.2°
Sets 05:28:49 0° 196° (SSW) 3,359 ? -6.6°
